Flag Weather past 2 weeks in Sapporo, Japan

Now
30 °F

Chilly.


Feels Like: 26 °F
Forecast: 25 / 46 °F
Wind: 3 mph from Southeast

Location: Sapporo

Current Time: Nov 26, 2014 at 6:07:10 AM

Latest Report: Nov 26, 2014 at 5:00 AM


Visibility: N/A

Pressure: 30.26 "Hg

Humidity: 60%

Dew point: 18 °F

Location of SapporoLocation

Historic Weather in Sapporo — Graph

°F

Sapporo temperature yesterday

Maximum temperature yesterday: 42 °F (at 2:00 AM)
Minimum temperature yesterday: 32 °F (at 11:00 PM)
Average temperature yesterday: 39 °F

Past Weeks' High & Low Weather Summary

 TemperatureHumidityPressure
High57 °F (Nov 22, 12:00 PM)92% (Nov 13, 9:00 PM)30.33 "Hg (Nov 13, 9:00 PM)
Low27 °F (Nov 15, 6:00 AM)36% (Nov 13, 1:00 PM)29.32 "Hg (Nov 12, 11:00 PM)
Average39 °F67%30.02 "Hg
* Reported Nov 11 4:00 AM — Nov 26 4:00 AM, Sapporo, Weather by CustomWeather, © 2014

Note: Actual official high and low records may vary slightly from our data, if they occured in-between our weather recording intervals... More about our weather records

Advertising

Sapporo weather history for previous 24 hours

 ConditionsComfort  
Time TempWeatherWind HumidityBarometerVisibility
4:00 AM
Nov 26
30 °FChilly.5 mph64%30.27 "HgN/A
3:00 AM30 °FClear.2 mph69%30.27 "Hg12 mi
2:00 AM30 °FChilly.2 mph72%30.27 "HgN/A
1:00 AM31 °FChilly.2 mph70%30.26 "HgN/A
12:00 AM32 °FChilly.2 mph69%30.27 "HgN/A
11:00 PM
Nov 25
32 °FChilly.2 mph68%30.26 "HgN/A
10:00 PM33 °FChilly.2 mph69%30.26 "HgN/A
9:00 PM35 °FPassing clouds.1 mph60%30.25 "Hg12 mi
8:00 PM36 °FChilly.5 mph57%30.24 "HgN/A
7:00 PM36 °FChilly.3 mph55%30.23 "HgN/A
6:00 PM38 °FPassing clouds.6 mph53%30.22 "Hg12 mi
5:00 PM38 °FChilly.7 mph50%30.20 "HgN/A
4:00 PM39 °FChilly.8 mph52%30.18 "HgN/A
3:00 PM40 °FPartly sunny.14 mph48%30.16 "Hg19 mi
2:00 PM41 °FQuite cool.12 mph42%30.15 "HgN/A
1:00 PM40 °FQuite cool.13 mph49%30.15 "HgN/A
12:00 PM40 °FPartly sunny.12 mph44%30.15 "Hg19 mi
11:00 AM41 °FQuite cool.15 mph44%30.16 "HgN/A
10:00 AM40 °FChilly.20 mph47%30.16 "HgN/A
9:00 AM40 °FPartly sunny.15 mph44%30.15 "Hg12 mi
8:00 AM40 °FChilly.16 mph49%30.14 "HgN/A
7:00 AM39 °FChilly.15 mph45%30.11 "HgN/A
Weather by CustomWeather, © 2014

See weather overviewHow to use our weather pages